Location: Unspecified
(40.7945°N, 111.1337°W)
Time: 11:29:22
(UTC-06:00)

Vanguard 1 - Pass Details

Date: 24 June 2019
Orbit: 655 x 3829 km, 34.2° (Epoch: 22 August)

Event Time Altitude Azimuth Distance (km) Brightness Sun altitude
Exits shadow 04:41:06 - 248° (WSW) 6,792 13.8 -11.6°
Reaches altitude 10° 04:42:57 10° 248° (WSW) 6,354 13.6 -11.3°
Maximum altitude 05:01:00 62° 174° (S) 2,450 11.9 -8.8°
Drops below altitude 10° 05:10:48 10° 96° (E) 3,654 13.7 -7.4°
Sets 05:13:11 0° 92° (E) 4,341 14.2 -7.1°
